Weather History for Ukiah, CA

Change the Weather History Date:

Tuesday, January 28, 2014

  Actual Average Record
Temperature  
Mean Temperature 53 °F 48 °F  
Max Temperature 57 °F 58 °F 77 °F (1984)
Min Temperature 49 °F 37 °F 22 °F (1948)
Degree Days  
Heating Degree Days 12 17  
Month to date heating degree days 409 519  
Since 1 July heating degree days 1581 1749  
Cooling Degree Days 0 0  
Month to date cooling degree days 0 0  
Year to date cooling degree days 0 0  
Growing Degree Days 2 (Base 50)    
Moisture  
Dew Point 51 °F    
Average Humidity 80    
Maximum Humidity 100    
Minimum Humidity 59    
Precipitation  
Precipitation 0.09 in 0.10 in 1.83 in (1996)
Month to date precipitation 0.27 6.66  
Year to date precipitation 0.27 6.66  
Since 1 July precipitation 2.19 20.63  
Snow  
Snow 0.00 in - - ()
Month to date snowfall 0.0  
Since 1 July snowfall 0.0  
Snow Depth 0.00 in    
Sea Level Pressure  
Sea Level Pressure 30.22 in    
Wind  
Wind Speed 0 mph (NNE)    
Max Wind Speed 7 mph    
Max Gust Speed 7 mph    
Visibility 3 miles    
Events Fog , Rain    
T = Trace of Precipitation, MM = Missing Value Source: NWS Daily Summary

Daily Weather History Graph

Daily Weather History Graph

Search for Another Location

Airport:

Trip Planner

Search our weather history database for the weather conditions in past years. The results will help you decide how hot, cold, wet, or windy it might be!

Date:

Astronomy

Jan. 28, 2014 Rise Set
Actual Time 7:22 AM PST 5:29 PM PST
Civil Twilight 6:54 AM PST 5:57 PM PST
Nautical Twilight 6:22 AM PST 6:29 PM PST
Astronomical Twilight 5:50 AM PST 7:01 PM PST
Moon 5:09 AM PST (1/28) 3:25 PM PST (1/28)
Length of Visible Light 11h 03m
Length of Day
10h 06m
Waning Crescent, 6% of the Moon is Illuminated
Jan 28
Waning Crescent
Jan 30
New
Feb 6
First Quarter
Feb 14
Full
Feb 22
Last Quarter

Hourly Weather History & Observations

Time (PST) Temp. Dew Point Humidity Pressure Visibility Wind Dir Wind Speed Gust Speed Precip Events Conditions
12:56 AM 53.1 °F 39.9 °F 61% 30.19 in 10.0 mi Calm Calm - N/A   Overcast
1:56 AM 53.1 °F 39.9 °F 61% 30.19 in 10.0 mi Calm Calm - N/A   Overcast
2:56 AM 52.0 °F 39.9 °F 63% 30.19 in 10.0 mi Calm Calm - N/A   Overcast
3:56 AM 51.1 °F 39.9 °F 66% 30.18 in 10.0 mi Calm Calm - N/A   Mostly Cloudy
4:56 AM 52.0 °F 41.0 °F 66% 30.19 in 10.0 mi NNE 3.5 mph - N/A   Overcast
5:56 AM 51.1 °F 45.0 °F 80% 30.20 in 10.0 mi WNW 4.6 mph - 0.00 in   Overcast
6:38 AM 50.0 °F 46.9 °F 89% 30.23 in 3.0 mi ENE 3.5 mph - 0.01 in Rain Light Rain
6:42 AM 48.9 °F 46.9 °F 93% 30.24 in 2.5 mi ENE 3.5 mph - 0.01 in Rain Light Rain
6:56 AM 48.9 °F 46.9 °F 93% 30.23 in 3.0 mi Calm Calm - 0.01 in Rain Light Rain
7:52 AM 50.0 °F 48.2 °F 94% 30.25 in 2.5 mi Calm Calm - 0.02 in   Overcast
7:56 AM 50.0 °F 48.0 °F 93% 30.24 in 2.5 mi Calm Calm - 0.02 in   Overcast
8:17 AM 50.0 °F 48.9 °F 96% 30.25 in 1.5 mi Calm Calm - 0.00 in Rain Light Rain
8:39 AM 50.0 °F 48.0 °F 93% 30.26 in 2.5 mi Calm Calm - 0.01 in   Overcast
8:51 AM 50.0 °F 48.2 °F 94% 30.26 in 3.0 mi Calm Calm - 0.01 in   Overcast
8:56 AM 50.0 °F 48.0 °F 93% 30.25 in 3.0 mi Calm Calm - 0.01 in   Overcast
9:25 AM 51.1 °F 48.9 °F 92% 30.27 in 2.5 mi Calm Calm - 0.00 in Rain Light Rain
9:31 AM 51.1 °F 48.9 °F 92% 30.27 in 1.8 mi Calm Calm - 0.00 in Rain Light Rain
9:56 AM 51.1 °F 48.9 °F 92% 30.26 in 1.5 mi Calm Calm - 0.01 in Rain Light Rain
10:13 AM 51.1 °F 48.9 °F 92% 30.27 in 1.8 mi Calm Calm - 0.00 in Rain Light Rain
10:22 AM 51.1 °F 48.9 °F 92% 30.28 in 2.5 mi Calm Calm - 0.01 in Rain Light Rain
10:33 AM 52.0 °F 50.0 °F 93% 30.28 in 3.0 mi Calm Calm - 0.01 in Rain Light Rain
10:39 AM 52.0 °F 50.0 °F 93% 30.27 in 2.5 mi Calm Calm - 0.01 in Rain Light Rain
10:56 AM 52.0 °F 50.0 °F 93% 30.27 in 1.8 mi Calm Calm - 0.01 in Rain Light Rain
11:03 AM 52.0 °F 50.0 °F 93% 30.27 in 1.8 mi Calm Calm - 0.00 in Rain Light Rain
11:10 AM 52.0 °F 50.0 °F 93% 30.27 in 1.8 mi Calm Calm - 0.01 in Rain Light Rain
11:12 AM 52.0 °F 50.0 °F 93% 30.27 in 2.0 mi Calm Calm - 0.01 in Rain Light Rain
11:31 AM 53.1 °F 51.1 °F 93% 30.26 in 3.0 mi Calm Calm - 0.01 in Rain Light Rain
11:52 AM 53.6 °F 51.8 °F 94% 30.25 in 7.0 mi Calm Calm - 0.01 in   Overcast
11:56 AM 53.1 °F 51.1 °F 93% 30.24 in 9.0 mi Calm Calm - 0.01 in   Overcast
12:07 PM 54.0 °F 51.1 °F 90% 30.25 in 10.0 mi Calm Calm - N/A   Overcast
12:20 PM 54.0 °F 51.1 °F 90% 30.24 in 10.0 mi Calm Calm - N/A   Overcast
12:56 PM 54.0 °F 51.1 °F 90% 30.22 in 3.0 mi Calm Calm - N/A   Overcast
1:05 PM 54.0 °F 52.0 °F 93% 30.22 in 2.0 mi Calm Calm - N/A   Overcast
1:23 PM 54.0 °F 52.0 °F 93% 30.22 in 1.8 mi Calm Calm - N/A   Overcast
1:56 PM 55.0 °F 53.1 °F 93% 30.21 in 1.5 mi Calm Calm - 0.00 in Rain Light Rain
2:07 PM 55.0 °F 53.1 °F 93% 30.21 in 2.5 mi Calm Calm - 0.00 in   Overcast
2:14 PM 55.0 °F 53.1 °F 93% 30.21 in 3.0 mi Calm Calm - 0.00 in   Overcast
2:47 PM 55.9 °F 54.0 °F 93% 30.21 in 2.5 mi Calm Calm - 0.01 in Rain Light Rain
2:56 PM 57.0 °F 54.0 °F 89% 30.20 in 2.5 mi Calm Calm - 0.01 in   Overcast
3:05 PM 55.9 °F 54.0 °F 93% 30.21 in 6.0 mi Calm Calm - N/A   Overcast
3:08 PM 57.0 °F 54.0 °F 89% 30.21 in 6.0 mi Calm Calm - N/A   Overcast
3:16 PM 57.0 °F 54.0 °F 89% 30.20 in 3.0 mi Calm Calm - N/A   Overcast
3:56 PM 57.0 °F 54.0 °F 89% 30.20 in 8.0 mi Calm Calm - N/A   Overcast
4:03 PM 57.0 °F 54.0 °F 89% 30.20 in 9.0 mi Calm Calm - N/A   Overcast
4:23 PM 57.0 °F 54.0 °F 89% 30.21 in 2.5 mi Calm Calm - N/A   Overcast
4:37 PM 55.9 °F 55.0 °F 97% 30.21 in 1.8 mi Calm Calm - N/A   Overcast
4:56 PM 55.9 °F 55.0 °F 97% 30.20 in 1.2 mi Calm Calm - N/A   Overcast
5:16 PM 55.9 °F 55.0 °F 97% 30.20 in 1.5 mi Calm Calm - N/A   Overcast
5:34 PM 55.9 °F 55.0 °F 97% 30.20 in 1.5 mi Calm Calm - N/A   Overcast
5:42 PM 55.9 °F 55.0 °F 97% 30.20 in 1.8 mi Calm Calm - N/A   Overcast
5:51 PM 55.4 °F 55.4 °F 100% 30.20 in 2.0 mi Calm Calm - N/A   Overcast
5:56 PM 55.9 °F 55.0 °F 97% 30.19 in 2.0 mi Calm Calm - N/A   Overcast
6:07 PM 55.9 °F 55.0 °F 97% 30.20 in 1.8 mi Calm Calm - N/A   Overcast
6:56 PM 55.9 °F 55.0 °F 97% 30.21 in 1.2 mi Calm Calm - N/A   Overcast
7:24 PM 55.0 °F 55.0 °F 100% 30.21 in 2.0 mi Calm Calm - 0.00 in   Overcast
7:33 PM 55.0 °F 55.0 °F 100% 30.21 in 2.0 mi Calm Calm - 0.00 in   Overcast
7:40 PM 55.0 °F 54.0 °F 96% 30.21 in 1.8 mi Calm Calm - 0.01 in   Overcast
7:48 PM 55.0 °F 54.0 °F 96% 30.21 in 2.5 mi Calm Calm - 0.01 in   Overcast
7:56 PM 55.9 °F 55.0 °F 97% 30.20 in 3.0 mi Calm Calm - 0.01 in   Overcast
8:08 PM 55.0 °F 54.0 °F 96% 30.21 in 2.5 mi Calm Calm - N/A   Overcast
8:23 PM 55.0 °F 54.0 °F 96% 30.21 in 1.0 mi Calm Calm - N/A   Overcast
8:36 PM 55.0 °F 54.0 °F 96% 30.20 in 0.8 mi Calm Calm - N/A   Overcast
8:49 PM 55.0 °F 54.0 °F 96% 30.21 in 1.0 mi Calm Calm - N/A   Mist
8:56 PM 55.0 °F 54.0 °F 96% 30.20 in 0.8 mi Calm Calm - N/A   Mist
9:02 PM 55.0 °F 54.0 °F 96% 30.21 in 2.0 mi Calm Calm - N/A   Overcast
9:31 PM 55.9 °F 54.0 °F 93% 30.22 in 3.0 mi Calm Calm - N/A   Overcast
9:56 PM 55.9 °F 55.0 °F 97% 30.22 in 3.0 mi Calm Calm - N/A   Overcast
10:33 PM 55.9 °F 55.0 °F 97% 30.21 in 2.5 mi Calm Calm - N/A   Overcast
10:47 PM 55.9 °F 55.0 °F 97% 30.21 in 2.5 mi Calm Calm - N/A   Overcast
10:56 PM 55.9 °F 55.0 °F 97% 30.21 in 2.0 mi Calm Calm - N/A   Overcast
11:05 PM 55.9 °F 54.0 °F 93% 30.21 in 1.5 mi Calm Calm - N/A   Overcast
11:25 PM 55.0 °F 54.0 °F 96% 30.20 in 0.8 mi Calm Calm - N/A   Overcast
11:51 PM 55.4 °F 53.6 °F 94% 30.21 in 0.2 mi Calm Calm - N/A Fog Fog
11:56 PM 55.0 °F 54.0 °F 96% 30.19 in 0.2 mi Calm Calm - N/A Fog Fog